| time (UTC) | temp F | wind direction | speed MPH | gust MPH | rain 1hr in | rain 24hr in | rain mn in | humidity % | barometer mb |
| 20260903024119 | 69 | 102 | 0.0 | 6.0 | 0.00 | 0.02 | 0.02 | 96 | 1016.7 |
| 20260903023119 | 69 | 102 | 0.0 | 3.0 | 0.00 | 0.02 | 0.02 | 96 | 1016.9 |
| 20260903022119 | 69 | 115 | 3.0 | 3.0 | 0.00 | 0.02 | 0.02 | 96 | 1017.0 |
| 20260903021119 | 69 | 98 | 0.0 | 2.0 | 0.00 | 0.02 | 0.02 | 96 | 1017.1 |
| 20260903020119 | 69 | 102 | 0.0 | 7.0 | 0.00 | 0.02 | 0.02 | 96 | 1016.9 |
| 20260903014119 | 69 | 111 | 0.0 | 7.0 | 0.00 | 0.02 | 0.02 | 96 | 1016.6 |
| 20260903013119 | 69 | 107 | 0.0 | 7.0 | 0.00 | 0.02 | 0.02 | 95 | 1016.7 |
| 20260903012119 | 69 | 121 | 2.0 | 7.0 | 0.00 | 0.02 | 0.02 | 95 | 1016.7 |
| 20260903011119 | 69 | 103 | 0.0 | 4.0 | 0.00 | 0.02 | 0.02 | 95 | 1016.8 |
| 20260903010119 | 70 | 86 | 4.0 | 7.0 | 0.00 | 0.02 | 0.02 | 95 | 1017.0 |
| 20260903005119 | 70 | 107 | 1.0 | 4.0 | 0.00 | 0.02 | 0.02 | 95 | 1017.1 |
| 20260903004119 | 70 | 107 | 1.0 | 4.0 | 0.00 | 0.02 | 0.02 | 95 | 1017.2 |
| 20260903003119 | 70 | 96 | 1.0 | 4.0 | 0.00 | 0.02 | 0.02 | 95 | 1017.0 |
| 20260903002120 | 70 | 110 | 4.0 | 6.0 | 0.00 | 0.03 | 0.02 | 95 | 1016.8 |
| 20260903001119 | 70 | 107 | 0.0 | 3.0 | 0.00 | 0.06 | 0.02 | 95 | 1016.8 |
| 20260903000119 | 70 | 94 | 0.0 | 4.0 | 0.00 | 0.09 | 0.02 | 95 | 1016.5 |
| 20260902235119 | 70 | 105 | 1.0 | 4.0 | 0.00 | 0.10 | 0.02 | 95 | 1016.6 |
| 20260902234118 | 70 | 103 | 0.0 | 3.0 | 0.00 | 0.10 | 0.02 | 95 | 1016.5 |
| 20260902233120 | 70 | 103 | 3.0 | 4.0 | 0.00 | 0.10 | 0.02 | 95 | 1016.5 |
| 20260902232119 | 70 | 117 | 2.0 | 4.0 | 0.00 | 0.10 | 0.02 | 95 | 1016.6 |
| 20260902231119 | 70 | 107 | 0.0 | 6.0 | 0.00 | 0.10 | 0.02 | 95 | 1016.5 |
| 20260902230119 | 70 | 128 | 0.0 | 7.0 | 0.00 | 0.10 | 0.02 | 95 | 1016.5 |
| 20260902225119 | 70 | 111 | 4.0 | 4.0 | 0.00 | 0.10 | 0.02 | 95 | 1016.5 |
| 20260902224118 | 70 | 136 | 3.0 | 5.0 | 0.00 | 0.10 | 0.02 | 95 | 1016.7 |
| 20260902223118 | 70 | 112 | 0.0 | 4.0 | 0.00 | 0.10 | 0.02 | 95 | 1016.8 |
| 20260902221118 | 71 | 118 | 1.0 | 5.0 | 0.00 | 0.10 | 0.02 | 95 | 1017.0 |
| 20260902220118 | 71 | 104 | 0.0 | 3.0 | 0.00 | 0.10 | 0.02 | 95 | 1017.2 |
| 20260902215119 | 71 | 92 | 0.0 | 1.0 | 0.00 | 0.10 | 0.02 | 95 | 1017.4 |
| 20260902214118 | 71 | 92 | 0.0 | 4.0 | 0.00 | 0.10 | 0.02 | 95 | 1017.1 |
| 20260902212119 | 71 | 114 | 0.0 | 8.0 | 0.00 | 0.10 | 0.02 | 95 | 1016.7 |
| 20260902211118 | 71 | 95 | 2.0 | 7.0 | 0.00 | 0.10 | 0.02 | 95 | 1016.8 |
| 20260902210118 | 71 | 95 | 2.0 | 8.0 | 0.00 | 0.10 | 0.02 | 95 | 1016.6 |
| 20260902205118 | 71 | 111 | 0.0 | 8.0 | 0.00 | 0.10 | 0.02 | 95 | 1016.6 |
| 20260902204118 | 71 | 96 | 0.0 | 2.0 | 0.00 | 0.10 | 0.02 | 95 | 1016.7 |
| 20260902203118 | 71 | 97 | 0.0 | 3.0 | 0.00 | 0.10 | 0.02 | 95 | 1016.9 |
| 20260902202119 | 70 | 113 | 0.0 | 4.0 | 0.00 | 0.10 | 0.02 | 95 | 1016.9 |
| 20260902201118 | 70 | 90 | 1.0 | 7.0 | 0.00 | 0.10 | 0.02 | 95 | 1016.9 |
| 20260902200119 | 70 | 114 | 0.0 | 7.0 | 0.00 | 0.10 | 0.02 | 95 | 1016.9 |
| 20260902195117 | 70 | 116 | 1.0 | 6.0 | 0.01 | 0.10 | 0.02 | 95 | 1016.8 |
| 20260902194119 | 70 | 117 | 3.0 | 6.0 | 0.01 | 0.10 | 0.02 | 95 | 1016.9 |
| 20260902193117 | 70 | 84 | 2.0 | 6.0 | 0.01 | 0.10 | 0.02 | 95 | 1016.9 |
| 20260902192117 | 70 | 104 | 2.0 | 8.0 | 0.01 | 0.10 | 0.02 | 95 | 1017.2 |
| 20260902191118 | 70 | 107 | 0.0 | 7.0 | 0.01 | 0.10 | 0.02 | 95 | 1017.2 |
| 20260902190118 | 70 | 115 | 1.0 | 3.0 | 0.01 | 0.10 | 0.02 | 95 | 1017.3 |
| 20260902185118 | 70 | 113 | 0.0 | 2.0 | 0.00 | 0.09 | 0.01 | 94 | 1017.6 |
| 20260902183117 | 70 | 105 | 0.0 | 2.0 | 0.00 | 0.09 | 0.01 | 94 | 1017.8 |
| 20260902182117 | 70 | 103 | 0.0 | 1.0 | 0.01 | 0.09 | 0.01 | 94 | 1017.9 |
| 20260902181118 | 70 | 103 | 1.0 | 1.0 | 0.01 | 0.09 | 0.01 | 94 | 1018.2 |
| 20260902175117 | 70 | 103 | 0.0 | 3.0 | 0.01 | 0.09 | 0.01 | 94 | 1018.2 |
| 20260902174118 | 70 | 106 | 0.0 | 2.0 | 0.01 | 0.09 | 0.01 | 94 | 1018.0 |
| 20260902173117 | 70 | 107 | 2.0 | 4.0 | 0.01 | 0.09 | 0.01 | 94 | 1017.9 |
| 20260902172118 | 70 | 128 | 0.0 | 4.0 | 0.00 | 0.08 | 0.00 | 94 | 1017.8 |
| 20260902171117 | 70 | 97 | 1.0 | 4.0 | 0.00 | 0.08 | 0.00 | 93 | 1018.3 |
| 20260902170118 | 70 | 102 | 0.0 | 4.0 | 0.00 | 0.08 | 0.00 | 93 | 1018.6 |
| 20260902165118 | 70 | 115 | 0.0 | 4.0 | 0.00 | 0.08 | 0.00 | 94 | 1018.7 |
| 20260902164117 | 70 | 121 | 0.0 | 2.0 | 0.00 | 0.08 | 0.00 | 94 | 1018.7 |
| 20260902163117 | 70 | 113 | 0.0 | 4.0 | 0.00 | 0.08 | 0.00 | 94 | 1018.7 |
| 20260902162117 | 70 | 103 | 0.0 | 2.0 | 0.00 | 0.08 | 0.00 | 94 | 1018.9 |
| 20260902161118 | 70 | 111 | 0.0 | 3.0 | 0.00 | 0.08 | 0.00 | 94 | 1018.9 |